User: anonymous   Login
Location: Brno
(49.2000°N, 16.6330°E)
Time: 10:56:49
(UTC+01:00)
Language:

BREEZE M DEB (TANK) - Orbit

View from above orbital plane
View from above orbital plane
View from above satellite
View from above satellite

Ground track
Ground track

The orbit data is extracted from the following two-line orbital elements,

1 28359U 04022B   17058.42283507  .00003708  00000-0  46031-3 0  9992
2 28359  49.4842 156.3656 4669712 134.7768 274.4000  6.19743773278486
Epoch (UTC): 27 February 2017 10:08:52
Eccentricity: 0.4669712
inclination: 49.4842°
perigee height: 295 km
apogee height: 11988 km
right ascension of ascending node: 156.3656°
argument of perigee: 134.7768°
revolutions per day: 6.19743773
mean anomaly at epoch: 274.4000°
orbit number at epoch: 27848

The dashed part of the orbit path shows where the satellite is in the earth's shadow,  

DLR